map of PUQ home
Great Circle Mapper logo
PUQ - Airport
Location
City:  Punta Arenas, Magallanes, Chile
Name:Presidente Carlos Ibáñez del Campo International Airport
ICAO / IATA:SCCI / PUQ

Details
Type:Airport (Aerodrome, Airfield)
Use:Public/Civil, Military, International (customs port of entry)
Latitude:53°00'10"S (-53.002641)
Longitude:70°51'17"W (-70.854585)
Datum:WGS 1984
Elevation:139 ft (42 m)
Runways:3
Longest:9154 × 148 ft (2790 × 45 m), paved

Time
Time Zone:UTC-4 (DST-3)
Local Time:

Weather
METAR:SCCI 020100Z 06009KT 9000 -DZ OVC008 06/05 Q1010 NOSIG
TAF:SCCI 012247Z 0200/0300 09007KT 9999 SCT010 BKN020 TN03/0211Z TX07/0218Z
TEMPO 0204/0206 FEW008 SCT020
BECMG 0207/0209 8000 RADZ PROB30
TEMPO 0208/0215 2000 BR BCFG BKN005 OVC012
BECMG 0216/0218 9000 05008KT
TEMPO 0218/0300 VRB03KT

Related Locations
Nearby:
Farthest:UUD: 12323 mi / 19832 km
Ulan Ude [Mukhino], Buryatia, RU

Find:

   beyond  
but within

Other Information
Maps:
NOTAMs:
Links:
Sources:

  
flag of Chile
flag of Magallanes
  

Sectional Chart

Flight Planning
at skyvector.com

Satellite Image

Google Maps Satellite View

 

Copyright © 2004-2014 Karl L. Swartz. All rights reserved.
The Great Circle Mapper name and logo are trademarks of the Great Circle Mapper.
All other trademarks mentioned herein belong to their respective owners.
Please see credits for attibutions and further copyright information.

  Follow gcmap on Facebook Follow gcmap on Twitter

hCard Microformat

Geo Microformat